STARLINK-1887 (47170 NORAD) Tracking and Keplerian Element Data
This shows tracking and keplerian element data for the satellite.
Feedback or suggestion? Click here.
Element | Value |
Catalog | 47170 |
Name | STARLINK-1887 |
Epoch Orbit | 895 |
Epoch Day | 16.16667824 |
Epoch Year | 2021 |
RAAN | 97.6128 |
Inclination | 53.0544 |
Eccentricity | 0.0001219 |
Argument of Perigee | 61.1489 |
Mean Anonmoly | 190.5426 |
Mean Motion | 15.52003951 |
Decay Rate | -0.01086638 |
L1 | 1 47170U 20088BA 21016.16667824 -.01086638 00000-0 -19589-1 0 9994 |
L2 | 2 47170 53.0544 97.6128 0001219 61.1489 190.5426 15.52003951 8957 |
Live tracking and technical data element details for STARLINK-1887 (NORAD 47170). STARLINK-1887 can be tracked NOW for your location showing map with azimuth and elevation plus other details from your city location.
Track the satellite on the map from your city or location and see movement details for azimuth, elevation, latitude, longitude, range, height, and movement on the map or in text.
IsCatalogInMostPopularTable: catalog: 47170, numindb: 26
Update: records affected: 1
GetName: 47170 STARLINK-1887
Hit Count: updated at: Sun, 17 Jan 2021 09:02:55 GMT